Location: Ariel
(45.9570°N, 122.5700°W)
Time: 00:17:07
(UTC-07:00)

Transit 4A - Pass Details

Date: 21 July 2019
Orbit: 864 x 981 km, 66.8° (Epoch: 25 August)

Event Time Altitude Azimuth Distance (km) Brightness Sun altitude
Exits shadow 02:50:11 36° 205° (SSW) 1,489 8.4 -20.3°
Maximum altitude 02:52:59 84° 122° (ESE) 991 8.0 -20.1°
Drops below altitude 10° 02:59:26 10° 34° (NE) 2,741 11.6 -19.6°
Sets 03:02:01 0° 34° (NE) 3,689 12.6 -19.4°
